Regional Weather Roundup
Issued by NWS Goodland, KS

Home | Current Version | Previous Version | Text Only | Print | Product List | Glossary On
Versions: 1 2 3 4 5 6 7 8 9 10 11 12 13 14 15 16 17 18 19 20 21 22 23 24 25 26 27 28 29 30 31 32 33 34 35 36 37 38 39 40 41 42 43 44 45 46 47 48 49 50
000
ASUS43 KGLD 300608
RWRGLD

GOODLAND FORECAST AREA HOURLY WEATHER ROUNDUP
NATIONAL WEATHER SERVICE GOODLAND KS
1200 AM MDT SUN AUG 30 2015

...OFFICIAL OBSERVATIONS...

CITY           SKY/WX    TMP DP  RH WIND       PRES   REMARKS
GOODLAND KS    CLEAR     64  48  56 S12       30.12F
HILL CITY KS   FAIR      64  57  78 SE3       30.08S
IMPERIAL NEB   CLEAR     70  48  45 S9        30.07F
MCCOOK NEB     CLEAR     68  54  60 S8        30.06S
AKRON CO       CLEAR     69  40  34 S15G23    30.13S
BURLINGTON CO  CLEAR     61  45  55 SW9       30.16S
LIMON CO       CLEAR     56  42  59 SE8       30.20F
$$

...UNOFFICIAL OBSERVATIONS...

CITY           SKY/WX    TMP DP  RH WIND       PRES   REMARKS
COLBY KS       CLEAR     66  55  68 S5        30.11F
GOVE KS          N/A     61  32  33 MISG        N/A
LENORA KS        N/A     63  32  31 MISG        N/A
NORTON KS      CLEAR     63  55  77 SE5       30.07
SHARON SPRINGS   N/A     63  51  63 S9          N/A
TRENTON NEB      N/A     67  32  27 S9          N/A
YUMA CO          N/A     64  44  49 SW9         N/A
$$


USA.gov is the U.S. government's official web portal to all federal, state and local government web resources and services.